星链-36462(STARLINK-36462)

导读

STARLINK-36462是美国SpaceX星链星座的卫星,于2026年1月4日发射入轨。星链项目旨在构建全球卫星互联网通信网络,为全球偏远地区、海洋空域等场景提供高速低延迟的宽带服务,该卫星加入星座后进一步拓展了星链网络的覆盖范围与服务能力。

Basic Information
目录编号:
67321
目录名称:
STARLINK-36462
国际标识:
2026-002S
轨道中心:
EARTH
卫星名称:
星链-36462
卫星全名:
星链-36462(STARLINK-36462)
卫星状态:
在轨 (已飞行243 天)
发射日期:
2026-01-04 UTC
国别 :
美国 (US)
星等 :
--
Orbit Information
数据来源 国际轨道数据
星历时间: 2026-09-04T02:53:08+0800
15小时前
查看轨道信息
半长轴: 6861.161km
偏心率: 0.0000782
轨道倾角: 43.000°
近地点辐角 37.861°
升交点赤经 39.720°
平近点角 322.229°
近地点: 482.487km
远地点: 483.561km
周期: 94.266分钟
每日圈数: 15.275887
Detailed Information
固有亮度:
5
最大亮度:
2.5
卫星平台:
Starlink V1.0
覆盖范围:
全球
运营商:
太空探索技术公司
运营商所在国:
美国
制造商(研发单位):
太空探索技术公司
制造商所在国:
美国
使用方式:
暂无
Satellite Introduction
Starlink 计划是 SpaceX 推出的全球卫星互联网项目,通过发射低轨道卫星,为全球尤其是偏远地区提供高速、低延迟的互联网服务。自 2019 年起,Starlink 已部署数千颗卫星,旨在缩小全球数字鸿沟,推动互联网普及。该项目还为军事、航空等行业提供通信支持,带来广泛经济效益。
2D Orbit Map
3D Orbit Map
Orbit Altitude Analysis Chart
Orbit Inclination Analysis Chart
Orbit Comprehensive Analysis Chart
View Comprehensive Chart
Conjunction Data List
Event ID Objects TCA Miss Dist (km) Collision Risk Probability Collision Risk Index (CRI) Action
CDM_260905-132806-184706-732121
2026-09-05T
13:28:07+0000
0.692 km
远距离
5.81702E-5 中风险 0.7
CDM_260906-074005-907506-732121
2026-09-06T
07:40:07+0000
1.060 km
极远距离
4.693604E-6 低风险 0.48
CDM_260906-113505-907506-732121
2026-09-06T
11:35:30+0000
1.363 km
极远距离
2.067748E-6 低风险 0.41
CDM_260906-091405-907506-732121
2026-09-06T
09:14:16+0000
1.702 km
极远距离
1.093311E-6 低风险 0.36
CDM_260906-100105-907506-732121
2026-09-06T
10:01:21+0000
1.933 km
极远距离
8.030382E-7 极低风险 0.33
CDM_260906-060505-907506-732121
2026-09-06T
06:05:58+0000
1.970 km
极远距离
7.694248E-7 极低风险 0.33
CDM_260906-130905-907506-732121
2026-09-06T
13:09:39+0000
2.026 km
极远距离
7.249329E-7 极低风险 0.32